Theta_e
308 309 312 310 310 298 305 305 300 302 309 306 302 302 304 304 301 298 304 302 304 309 309 313 315 317 319 321 321 322 326 336 334 333 334 335 336 336 337 342 345 348 348 350 349 350 351 353 353 351 356 358 358 360 361 362 364 364 363 364 364 364 363
310 312 312 312 311 310 307 301 305 310 312 309 304 296 300 299 295 299 303 300 301 301 298 310 312 313 316 319 320 321 324 325 330 331 333 335 335 337 340 345 347 348 347 347 348 350 351 351 351 353 357 358 360 361 361 361 363 363 363 362 362 363 363
308 311 310 309 311 312 306 305 313 304 298 298 303 301 294 294 294 297 302 304 303 304 304 307 308 310 313 316 320 321 322 324 332 332 335 336 336 336 340 341 341 342 346 348 350 349 350 353 356 356 358 357 358 360 361 363 362 363 362 361 363 363 363
306 307 307 299 304 309 311 311 306 310 307 303 299 301 302 301 295 297 298 302 300 307 308 310 309 311 314 315 318 319 321 322 334 332 332 334 336 341 340 339 341 341 342 346 349 349 349 351 354 356 355 355 356 358 361 363 364 364 365 364 364 362 362
303 297 302 301 304 302 303 303 303 305 305 308 307 306 302 299 297 297 298 297 302 310 313 313 313 313 315 316 318 322 321 324 326 334 333 334 334 334 338 340 343 343 343 345 347 350 350 350 356 355 354 355 356 358 361 364 364 363 364 363 362 362 363
297 299 306 307 306 306 305 304 301 304 303 300 297 296 306 303 299 296 297 297 307 311 315 315 315 316 315 317 318 321 323 323 326 328 331 334 334 336 342 341 340 340 347 348 347 349 349 351 352 354 355 356 356 358 360 363 364 364 364 363 363 364 364
296 301 305 307 306 305 304 305 304 306 305 305 301 294 300 303 303 305 303 300 304 315 317 316 316 316 317 318 318 319 321 324 325 327 328 333 336 337 341 342 341 343 344 344 346 348 348 349 348 349 351 354 356 357 360 363 363 364 364 364 365 366 364
300 302 304 306 306 305 303 304 305 303 302 305 303 303 305 302 303 300 300 298 303 313 320 320 318 321 318 319 319 319 319 321 324 326 327 329 333 338 338 340 340 343 343 345 347 347 346 345 349 352 355 357 356 357 360 363 363 364 364 365 364 364 363
294 296 299 300 304 304 301 300 304 306 306 305 306 306 308 301 302 303 299 295 301 311 318 319 317 315 316 317 318 319 319 320 321 322 324 328 334 335 335 337 341 344 345 346 348 348 349 349 350 355 358 358 358 359 360 361 363 365 365 365 364 363 362
284 285 286 289 296 298 302 305 304 306 304 303 303 299 302 296 305 307 301 300 307 313 319 316 316 316 319 317 318 318 319 322 320 320 322 327 336 334 335 339 339 338 342 346 350 350 350 348 349 358 360 358 358 359 360 362 363 364 365 365 364 363 362
290 293 296 299 302 300 297 300 301 301 303 304 303 303 300 297 303 301 307 308 308 310 312 313 314 315 314 315 317 317 317 320 324 338 334 329 337 337 337 343 342 343 344 348 352 353 351 350 353 357 358 358 358 361 361 361 363 364 365 365 365 363 362
294 296 297 299 299 296 299 300 300 302 302 301 299 296 296 306 300 297 308 316 307 308 312 315 315 315 316 316 319 317 320 321 320 324 336 340 332 337 339 339 342 343 344 349 351 354 356 353 354 355 357 358 360 362 360 361 362 363 364 365 365 364 362
294 296 296 297 297 297 297 297 298 298 300 300 298 299 301 302 298 296 307 314 309 310 313 318 319 321 318 316 320 321 319 321 328 339 326 326 327 332 333 347 349 344 354 353 354 355 356 354 354 355 356 357 360 363 361 362 361 362 365 365 364 363 363
293 294 295 296 295 295 296 296 297 299 299 298 299 300 302 303 302 304 306 313 308 311 318 318 320 323 322 322 324 325 326 325 330 325 326 325 328 328 331 339 342 350 355 355 358 359 358 355 356 353 356 359 360 360 361 360 362 363 365 364 364 363 362
291 293 295 295 295 295 293 296 297 298 298 299 300 301 302 303 302 304 305 308 308 318 320 320 322 324 323 324 323 328 329 329 330 330 329 331 330 332 335 341 343 346 350 355 362 369 363 360 359 357 359 359 358 358 359 360 362 363 365 364 364 364 364
289 293 293 294 295 295 294 294 296 297 297 296 299 300 303 302 302 304 304 304 306 313 317 319 320 321 321 324 325 326 326 325 325 325 329 331 332 333 334 337 340 342 342 350 352 359 359 359 363 359 362 360 358 356 360 360 360 361 362 364 364 365 367
288 292 294 293 293 292 290 291 294 297 298 299 301 303 305 305 305 303 301 303 310 312 317 315 319 320 324 325 325 326 327 327 325 324 325 331 334 336 336 338 341 340 343 349 355 356 351 352 350 355 360 357 359 359 361 362 362 361 362 362 364 366 367
288 291 293 294 290 283 285 297 300 300 298 299 298 300 303 305 306 305 307 308 314 313 314 317 320 320 322 324 326 327 328 331 332 331 334 339 339 340 341 341 341 347 348 350 351 355 361 360 353 354 358 356 361 361 363 366 364 363 364 363 365 365 367
286 290 292 287 282 285 297 300 301 302 302 302 301 302 304 305 307 307 307 308 309 311 320 318 320 323 324 326 325 326 330 332 331 332 334 337 338 340 341 343 344 347 350 353 354 355 353 357 359 352 354 355 361 363 364 364 364 365 366 365 365 366 367
290 288 287 279 282 294 297 299 301 303 302 303 304 300 304 305 306 308 306 308 309 313 319 319 322 323 323 325 327 327 326 327 327 328 331 334 337 338 340 342 345 349 348 350 349 351 357 356 355 357 349 351 352 359 363 365 363 365 367 367 366 366 367
284 287 286 286 294 292 295 294 297 299 300 304 304 298 304 307 308 308 309 315 311 316 318 320 321 323 322 321 322 324 322 324 326 327 330 335 337 339 341 343 344 348 350 351 351 356 356 358 358 358 358 346 352 355 359 360 363 363 366 367 366 366 366
291 286 285 286 286 283 289 297 306 309 310 312 310 306 304 310 314 315 314 314 316 315 316 318 320 320 317 314 315 320 320 322 324 327 329 332 335 337 339 342 345 348 350 352 354 354 354 355 356 361 361 361 357 358 359 361 362 361 362 365 367 366 366
289 287 283 283 282 287 297 302 307 309 310 311 312 303 297 309 312 313 315 312 313 313 314 316 319 318 312 311 314 316 319 321 324 325 326 328 331 335 337 339 341 344 348 351 352 353 354 352 357 360 361 362 359 358 360 360 361 359 360 364 366 366 366
290 288 285 282 288 287 300 306 306 309 310 309 306 292 293 305 311 312 313 312 312 312 314 317 317 316 311 310 311 316 319 322 323 324 324 325 328 332 336 338 341 344 348 350 352 353 353 357 362 362 360 357 357 358 360 359 357 357 358 362 366 368 368
290 288 287 289 290 297 305 305 307 308 310 304 294 288 300 307 309 310 310 312 312 313 313 315 312 315 315 314 316 318 321 321 322 323 325 326 329 331 334 336 340 341 345 348 350 352 356 360 360 360 358 354 354 360 360 358 357 358 361 363 368 369 369
287 288 286 286 291 298 301 308 308 309 300 290 289 303 308 309 309 309 310 309 312 312 312 313 314 315 317 318 317 317 318 319 320 321 322 325 327 330 333 336 338 341 344 347 350 352 356 359 358 358 358 357 358 363 360 358 360 362 364 366 368 370 370
290 289 287 285 282 299 305 306 304 308 298 299 304 307 309 309 309 309 309 310 310 311 310 313 314 315 315 316 316 316 317 317 318 318 320 321 323 326 330 334 338 341 343 346 349 353 356 356 358 358 354 355 359 364 360 361 363 365 367 367 370 371 371
285 287 285 285 296 299 306 305 299 305 306 308 309 309 306 309 309 309 308 309 309 310 310 311 312 314 315 316 315 315 316 317 317 319 321 322 324 326 330 334 337 340 342 347 350 355 358 358 360 362 358 357 362 364 363 366 366 368 369 369 371 371 369
290 289 293 299 301 303 303 307 306 308 310 311 310 310 309 308 308 310 309 309 310 310 309 310 312 311 314 314 314 313 314 315 316 318 319 320 322 324 327 331 336 339 342 347 352 357 358 362 364 366 366 363 369 366 368 369 368 368 369 369 370 370 369
298 300 300 301 302 303 305 306 307 308 310 311 311 310 308 309 310 310 309 310 309 309 310 308 310 311 312 313 312 313 314 314 317 318 319 321 323 324 326 329 335 338 340 346 350 353 360 363 365 367 369 366 369 369 373 370 370 369 370 370 369 369 369
293 289 300 299 299 302 303 305 307 310 310 311 311 309 309 309 310 311 310 310 310 310 310 309 310 311 312 313 312 314 314 315 316 317 318 320 322 324 326 328 335 336 338 343 346 351 355 359 361 366 358 364 376 377 373 371 369 371 371 370 367 368 369
292 291 298 300 301 302 304 306 304 304 308 309 310 310 310 311 311 312 312 312 309 310 310 311 310 311 313 313 313 313 314 315 317 317 317 318 321 325 327 330 336 334 336 340 344 348 353 358 362 366 368 369 376 373 369 366 365 371 371 369 368 368 368
294 298 299 298 299 301 305 303 305 305 306 307 308 310 309 310 310 311 312 312 311 310 311 311 311 311 313 314 314 313 315 316 317 317 318 319 322 325 325 329 335 332 333 336 342 344 348 354 359 360 365 366 368 371 372 370 368 367 369 366 367 368 367
290 291 293 296 290 291 297 300 303 304 305 307 307 308 309 310 309 310 310 311 313 313 312 311 311 311 312 314 315 314 315 317 317 318 319 320 323 324 325 332 334 332 331 334 338 340 342 346 349 354 357 360 364 367 369 373 372 368 368 368 367 367 366
288 294 296 297 297 296 299 301 303 304 306 306 307 308 309 310 311 312 312 310 311 311 312 313 312 312 313 315 315 314 315 318 320 319 319 320 322 323 326 328 330 330 330 332 336 338 340 340 342 343 345 347 352 358 362 364 367 370 371 367 365 366 365
295 297 297 298 298 296 299 302 303 304 306 306 306 309 310 310 311 312 312 312 311 311 312 313 314 314 314 315 315 314 316 318 320 319 321 323 324 325 326 328 328 329 329 329 332 335 337 338 339 341 342 342 344 346 355 361 359 363 368 366 365 364 365
294 300 300 300 301 302 304 304 304 304 306 307 306 307 310 311 312 313 312 312 313 312 312 313 314 315 314 315 315 316 316 317 320 320 321 324 323 324 323 325 328 328 329 329 330 332 333 334 336 338 338 340 343 344 351 353 353 355 357 356 355 363 365
Wind_Speed
19 16 15 16 15 11 9 12 15 13 9 12 11 14 16 15 11 12 8 10 12 10 12 12 15 16 16 15 15 12 18 24 26 23 23 23 20 19 18 17 15 15 16 15 14 14 12 14 16 21 19 19 19 18 19 21 19 19 18 19 18 17 16
8 13 16 16 19 17 10 13 12 11 14 13 10 10 7 11 11 8 10 13 11 12 10 11 15 17 17 16 17 19 13 19 25 25 24 21 20 20 20 18 16 17 18 19 18 16 19 18 19 22 19 18 16 17 20 21 21 21 20 19 19 17 16
13 12 13 18 19 20 18 14 5 13 11 15 12 7 12 11 11 8 10 12 13 11 9 11 18 17 18 18 18 16 14 15 25 21 21 18 18 19 20 20 17 19 18 19 17 20 16 14 19 21 16 19 17 17 20 22 24 24 23 19 18 15 16
10 14 11 16 14 17 21 19 19 13 10 12 13 11 9 7 11 9 11 12 8 9 9 14 15 18 17 17 17 19 10 12 17 18 19 18 17 17 17 16 18 18 18 19 20 19 20 21 18 16 21 21 22 22 21 21 21 19 19 19 17 17 19
15 9 7 12 13 14 15 15 14 11 11 10 10 12 13 10 9 9 8 11 8 7 8 12 14 16 15 13 11 11 15 15 18 21 19 17 17 16 18 19 18 19 18 19 19 16 16 16 11 18 20 21 22 20 21 23 22 23 23 21 20 18 16
10 11 9 10 11 11 12 12 16 14 13 11 10 12 13 14 10 6 8 10 6 11 11 7 7 8 13 14 13 9 12 18 15 16 18 15 16 16 19 19 18 18 17 19 18 14 11 12 17 21 19 20 22 22 21 22 22 21 22 21 19 18 17
12 15 16 18 21 20 21 15 13 18 15 12 11 9 9 12 14 12 11 9 9 7 5 12 11 15 14 15 16 15 12 13 15 16 19 19 19 17 18 19 20 18 17 18 18 20 20 22 22 21 22 22 22 22 21 20 22 23 22 21 19 16 16
17 21 21 21 17 17 16 12 11 12 12 15 13 10 10 12 13 13 11 11 8 1 11 1 12 8 10 11 16 15 16 13 13 14 17 18 18 22 24 22 20 17 18 15 14 16 16 15 15 19 21 19 20 20 21 21 23 23 22 20 19 18 17
8 11 14 17 15 11 9 11 10 13 15 19 18 14 9 13 14 15 12 13 12 2 6 6 6 4 13 11 9 12 14 14 16 15 14 12 15 18 23 20 20 17 17 18 16 16 16 15 17 19 19 19 20 20 20 21 21 21 20 19 19 19 20
11 10 13 11 8 7 9 12 12 12 16 21 14 10 7 9 8 13 9 12 12 4 4 7 9 5 6 7 8 10 9 9 15 15 14 10 10 16 17 21 21 21 17 16 16 17 16 18 20 17 17 18 20 19 21 19 19 20 20 19 19 19 19
12 12 10 15 13 11 11 17 20 16 14 15 16 11 11 10 11 13 8 4 5 9 9 7 7 5 8 5 8 3 9 5 5 2 4 5 10 13 15 18 19 16 14 15 18 19 19 22 19 18 18 18 18 15 18 19 18 18 18 18 17 19 20
17 21 20 18 16 16 16 17 16 17 14 17 17 11 11 11 12 13 9 4 8 10 8 10 5 12 5 6 7 5 4 6 9 3 6 9 9 9 10 17 18 18 18 17 17 17 18 20 18 16 18 18 16 15 17 17 18 19 17 17 16 17 17
18 21 22 19 17 16 18 19 19 18 18 16 16 15 16 17 9 10 12 7 8 7 6 12 14 9 2 1 6 4 10 5 3 3 5 6 4 5 8 6 7 11 15 14 16 18 18 20 18 18 17 17 15 14 15 15 17 19 16 15 16 17 16
17 18 19 18 17 16 17 18 20 19 18 18 18 18 20 19 15 18 20 8 11 12 8 10 12 12 10 9 15 9 17 13 8 6 7 8 10 5 1 4 3 6 4 14 17 19 18 18 17 18 15 15 16 16 16 18 15 16 15 16 15 17 17
16 17 17 18 17 16 17 18 19 20 18 17 18 18 20 19 18 19 15 13 12 5 9 6 5 10 10 11 12 18 15 16 14 14 12 13 9 15 10 11 14 14 6 5 4 5 10 11 13 13 13 14 16 18 16 18 15 15 16 15 15 15 15
13 14 16 16 16 17 18 19 20 20 18 17 15 14 13 15 14 15 16 16 14 5 6 2 4 5 10 14 14 13 12 13 13 11 10 8 8 10 10 8 12 10 9 6 5 3 4 2 7 10 9 13 15 16 16 16 18 17 16 15 16 14 14
12 13 15 17 16 15 17 18 17 18 20 18 18 18 17 17 18 16 15 13 8 8 8 5 5 10 11 11 10 11 10 11 12 12 11 9 8 12 10 10 10 9 7 10 11 9 4 9 12 14 11 13 13 13 13 14 13 15 14 16 14 15 15
10 12 14 14 13 15 12 6 11 16 18 18 19 17 17 17 16 10 10 12 8 7 4 9 7 9 9 9 8 7 7 8 12 12 11 12 11 10 10 10 10 11 11 10 10 9 7 8 9 9 10 11 11 12 10 10 12 12 12 13 14 15 14
10 11 13 12 14 12 9 11 13 15 16 18 20 19 18 19 15 12 14 17 15 15 7 7 6 6 9 9 10 9 14 12 11 12 13 11 9 10 10 10 11 10 10 10 9 7 8 8 5 6 10 12 9 11 11 13 13 12 11 12 13 14 15
8 10 9 10 11 11 13 13 14 16 18 15 13 19 20 19 17 13 15 18 18 10 15 8 8 6 8 8 6 14 15 14 13 11 11 12 12 11 10 11 10 9 11 11 12 11 9 9 10 5 11 13 14 12 12 12 13 12 10 11 14 14 14
11 10 11 12 11 14 14 12 12 12 6 10 8 6 12 11 11 11 10 17 14 11 10 9 7 8 7 5 2 15 15 15 13 13 11 12 12 12 12 13 13 12 11 10 11 11 10 10 11 9 11 16 14 13 14 14 13 14 12 13 14 16 16
8 10 10 10 11 12 11 9 7 5 7 7 7 6 12 9 17 13 9 13 11 14 13 11 11 10 10 8 1 13 14 15 15 13 13 13 13 13 14 14 15 14 13 12 12 12 13 13 14 13 12 11 12 10 13 13 14 15 15 14 15 16 16
9 10 10 9 9 11 2 3 5 5 7 10 9 6 10 9 18 18 15 15 15 14 14 14 12 8 9 9 4 14 15 15 14 14 14 14 14 14 14 15 16 16 15 15 15 14 14 15 14 14 15 13 12 13 12 14 15 16 17 15 15 17 17
10 9 8 10 9 7 3 1 4 6 7 5 5 11 7 12 16 14 13 12 13 13 15 13 9 7 6 9 12 15 16 14 13 14 15 15 15 14 15 15 15 16 16 15 15 15 15 14 13 13 15 12 12 12 14 16 17 17 18 17 16 15 15
11 13 10 10 11 9 8 9 7 3 2 5 4 12 3 10 12 11 11 11 11 12 13 11 9 10 8 8 11 15 16 17 15 14 14 14 14 15 16 16 16 15 15 14 15 16 14 13 14 12 12 11 11 11 14 15 17 18 17 13 12 12 14
13 12 11 11 11 1 4 5 6 7 5 9 8 4 5 9 9 11 11 10 11 12 12 11 10 12 15 14 13 14 15 16 17 16 16 16 17 16 16 17 16 15 15 15 16 17 16 17 17 13 10 10 10 9 13 16 17 16 12 11 11 12 14
7 10 12 11 12 3 10 9 7 9 6 3 2 3 4 7 8 8 9 7 9 10 11 12 12 13 14 15 14 15 14 16 17 18 17 17 17 17 18 18 18 16 16 16 17 18 17 18 16 11 12 11 10 9 14 16 14 11 11 11 12 12 13
6 7 10 5 4 8 11 8 3 2 3 2 1 3 3 3 5 7 8 8 10 12 10 10 11 11 13 12 14 14 14 15 17 17 17 16 16 17 17 17 18 18 17 16 17 18 18 15 12 8 9 10 10 10 13 12 11 11 11 11 12 13 13
4 5 6 4 8 6 10 13 3 2 4 3 2 2 3 4 3 5 5 7 9 11 13 14 11 9 10 12 12 13 13 15 15 16 17 17 16 16 17 18 18 17 17 18 17 19 15 8 9 8 7 8 8 11 10 10 11 11 11 12 12 13 13
8 13 14 12 4 5 8 11 8 1 4 4 0 1 4 3 5 5 6 7 8 10 12 13 12 8 11 11 12 12 12 13 14 15 16 17 16 16 16 16 17 16 16 16 16 17 15 11 13 10 7 8 9 9 9 10 12 11 11 11 13 13 13
10 4 6 7 12 10 10 10 11 5 4 2 1 2 3 5 6 7 5 5 7 9 12 13 13 10 10 9 9 10 10 12 14 15 16 16 16 16 16 16 16 15 15 13 14 16 14 12 11 14 8 6 3 6 8 11 11 11 11 12 13 12 13
9 10 11 12 13 15 9 3 8 9 8 7 6 5 5 7 8 8 7 5 7 8 10 11 13 15 10 7 8 9 9 10 11 13 14 16 17 17 15 15 13 14 14 13 13 13 13 12 12 10 13 5 5 5 8 10 11 9 9 12 13 14 15
11 12 5 15 15 10 4 11 9 9 9 9 10 9 8 8 10 10 9 6 6 8 10 12 13 13 12 7 8 8 8 9 10 12 13 14 15 15 16 15 12 13 13 14 12 13 12 12 11 11 11 13 8 4 5 7 8 9 9 12 13 14 14
8 6 10 14 10 9 12 15 14 14 13 12 11 10 11 9 9 9 9 8 6 7 9 11 12 11 11 10 6 8 7 9 11 13 13 14 14 15 15 11 11 13 15 14 12 12 11 11 12 11 13 11 11 10 5 4 5 8 10 11 13 14 13
8 12 13 11 11 12 11 13 14 13 13 12 12 11 11 10 10 10 10 10 8 7 9 10 10 10 10 12 7 6 7 8 10 11 12 13 13 14 15 13 12 13 15 15 12 12 11 12 11 12 12 13 13 12 10 9 8 6 10 11 12 13 13
11 9 9 11 11 12 13 13 14 13 12 11 12 12 11 11 11 10 10 10 9 7 9 10 9 10 9 10 10 6 7 8 10 12 13 11 11 13 13 10 12 13 14 15 14 13 11 11 11 10 10 11 11 12 10 9 9 9 8 11 12 12 13
8 8 9 10 12 13 10 10 11 11 10 10 10 11 13 12 12 11 11 10 10 8 8 8 9 8 9 9 11 11 6 7 8 11 14 12 12 12 13 15 12 12 11 13 13 13 13 13 13 12 11 11 12 12 9 8 9 8 6 7 8 9 10
Wind_Direction
236 210 200 210 248 243 188 195 216 224 229 235 249 261 277 288 252 237 226 217 214 234 247 228 220 227 229 231 251 232 164 161 165 169 176 183 188 186 182 179 177 173 172 177 182 187 189 195 206 207 195 190 186 180 181 182 185 185 185 183 181 181 178
308 241 202 209 213 249 263 212 208 224 237 255 241 248 253 244 258 258 225 234 213 198 225 208 221 217 220 215 231 241 196 168 161 171 176 178 181 181 178 180 179 176 179 184 186 182 189 197 208 209 194 190 184 181 181 182 183 185 187 183 182 180 178
285 292 245 204 216 223 246 258 176 206 194 218 227 263 239 244 239 252 244 235 246 206 207 198 211 215 213 207 213 238 171 172 159 163 171 169 185 174 173 187 180 178 181 184 181 187 190 198 206 208 195 188 186 184 183 185 185 187 185 183 182 180 179
334 305 255 225 208 212 244 252 259 263 264 221 215 217 254 252 266 246 238 251 240 224 219 193 206 209 213 203 205 217 199 181 153 161 169 176 177 172 180 183 180 181 183 183 183 182 187 195 202 211 203 193 193 187 184 187 186 185 183 184 181 182 183
312 294 277 230 205 199 202 237 253 250 248 285 276 217 215 234 243 254 264 226 233 254 255 205 201 200 201 210 212 204 190 201 164 163 170 177 185 185 172 176 178 180 181 180 182 185 183 187 196 209 204 204 193 189 188 187 186 186 186 186 184 183 182
267 280 277 266 252 260 243 214 245 241 234 223 237 249 214 217 231 245 261 266 249 208 220 259 164 177 189 197 223 227 203 195 197 178 176 180 186 181 167 174 179 185 180 176 177 174 179 175 188 206 210 202 194 194 190 187 188 189 188 187 186 181 184
271 278 294 308 315 318 306 273 237 230 232 233 228 239 223 215 219 237 254 275 256 332 311 194 173 190 191 189 204 218 214 217 201 190 189 183 176 170 164 168 180 184 182 182 175 181 188 186 189 197 201 204 198 194 190 188 189 191 189 188 185 181 183
286 286 285 284 282 273 285 294 291 295 257 234 235 237 250 247 211 212 225 241 257 78 360 279 174 153 169 191 190 204 213 215 231 210 197 193 171 174 177 181 177 179 183 180 174 178 187 193 193 192 198 196 195 194 193 191 193 190 189 188 185 182 183
276 267 270 274 279 288 282 277 283 274 278 285 253 238 257 254 241 225 206 226 231 274 300 52 347 166 240 152 175 206 214 204 209 220 234 214 175 170 182 169 165 176 178 177 175 181 187 193 192 191 192 195 194 194 193 193 192 190 189 188 186 183 184
238 232 225 239 259 268 319 315 298 272 275 285 247 232 280 265 268 262 224 218 233 222 263 115 268 232 210 147 213 171 241 199 193 207 208 237 179 174 175 161 167 175 178 178 177 181 187 195 196 185 187 193 196 194 194 192 190 192 192 189 187 183 185
276 281 341 326 304 317 299 309 310 306 311 331 321 277 249 251 255 257 263 329 315 255 222 178 222 227 257 2 324 286 185 269 277 113 20 231 175 171 159 149 161 169 180 182 173 180 187 194 191 185 186 192 195 191 192 192 190 189 190 190 185 184 187
269 279 279 291 307 286 286 281 290 285 294 327 320 321 299 331 318 251 240 178 234 281 45 1 218 182 163 236 241 281 338 185 221 279 72 357 129 145 150 160 165 175 182 182 178 182 186 188 188 186 187 190 192 188 191 193 189 188 190 190 184 183 187
262 268 276 280 287 289 283 284 286 288 295 294 289 295 303 295 287 290 273 222 255 274 66 57 4 16 100 176 286 286 218 150 105 11 97 43 70 106 149 149 152 169 165 170 180 186 184 184 186 186 186 187 190 187 190 193 192 190 184 186 186 184 187
267 266 273 277 277 284 283 280 282 285 289 291 298 294 288 280 284 284 264 267 246 236 94 50 17 6 37 39 345 45 30 50 37 54 119 51 35 153 274 20 72 17 174 178 180 178 181 181 180 187 181 182 188 188 190 192 194 189 178 184 185 185 188
269 271 273 276 278 276 278 281 279 276 276 282 276 279 279 290 285 274 265 273 260 191 83 20 24 9 358 10 45 30 34 24 23 7 25 28 37 46 54 43 36 12 23 22 37 146 171 172 180 185 178 184 188 194 190 193 194 191 182 178 183 183 184
274 272 266 266 267 265 267 266 265 268 273 268 266 262 269 263 263 269 270 256 234 313 270 113 342 3 14 16 19 38 27 9 2 351 358 23 19 40 24 38 36 13 12 122 168 234 48 288 202 187 185 182 189 197 190 194 194 194 189 180 180 179 178
265 265 268 266 258 263 257 252 254 265 262 263 266 269 274 278 272 258 244 249 276 281 305 311 0 328 29 37 33 357 349 340 336 336 342 6 19 13 352 10 18 13 12 357 0 345 194 201 212 224 202 195 192 195 193 190 190 194 191 183 178 178 177
269 279 276 278 268 244 247 261 252 245 256 254 253 255 260 263 259 276 301 292 287 300 14 38 29 17 22 7 7 350 7 9 7 356 20 28 12 5 4 350 351 7 350 344 339 330 329 308 262 234 228 214 190 193 192 180 190 196 191 183 176 178 176
261 271 271 270 254 253 272 282 291 288 259 249 254 263 264 263 261 261 269 276 275 264 115 89 47 355 359 1 349 24 40 26 21 9 11 14 13 355 357 352 346 343 328 323 317 320 324 331 321 260 249 220 198 185 188 185 188 194 192 181 173 176 179
263 261 256 259 256 262 275 274 279 284 282 271 294 261 247 253 267 262 264 267 272 323 348 31 40 11 346 345 22 46 36 22 16 7 360 356 355 354 345 336 328 334 332 328 316 308 312 297 283 256 256 246 220 194 189 188 184 191 191 182 173 176 179
247 235 245 254 282 275 264 269 259 272 317 18 33 338 311 300 284 272 330 318 293 346 17 6 345 331 321 312 71 39 30 11 11 354 357 350 349 346 338 332 326 321 316 304 302 305 298 293 285 251 227 230 226 201 190 190 184 189 190 185 179 179 182
254 258 256 250 249 252 249 256 349 7 18 356 23 299 280 328 347 356 345 351 354 360 358 351 345 321 293 279 190 22 11 4 3 350 354 347 346 343 338 330 323 318 311 316 316 317 308 303 297 292 275 254 217 201 188 189 183 188 194 191 185 181 184
247 247 253 254 251 251 339 35 335 2 4 359 330 298 254 20 355 4 357 9 5 0 351 348 346 324 280 270 20 3 357 355 356 349 351 344 340 338 332 326 319 315 318 319 311 300 290 278 273 272 272 265 245 196 186 186 185 189 196 195 188 185 185
240 246 236 246 249 265 151 116 337 354 17 347 268 251 244 0 350 353 0 354 2 354 343 345 339 342 340 354 343 343 346 347 355 352 344 341 336 332 328 319 317 315 311 303 293 288 280 271 258 251 260 254 250 210 185 185 191 196 199 199 192 184 178
240 232 241 249 267 262 16 349 338 31 305 15 251 236 9 346 347 356 360 357 358 351 346 350 342 355 360 345 332 339 343 346 351 354 343 339 335 330 326 321 317 305 300 295 295 295 294 289 284 265 249 246 243 214 186 188 194 199 199 195 184 178 179
245 240 235 241 246 80 324 351 315 9 298 228 251 66 19 356 357 2 357 5 6 353 353 344 340 330 327 333 340 348 351 347 343 345 344 340 338 332 326 317 310 307 305 301 298 293 287 281 267 255 249 237 244 209 187 191 196 195 187 183 183 177 176
260 234 243 238 240 70 333 325 236 16 304 10 350 15 9 12 354 359 1 354 7 347 344 338 333 330 329 326 334 350 352 347 344 343 344 340 335 331 325 321 318 314 310 305 297 292 284 276 269 241 236 236 234 208 194 193 190 179 176 179 179 175 177
275 252 234 244 7 327 340 333 295 57 88 39 54 349 326 346 352 1 342 346 349 339 329 331 325 331 322 328 345 345 347 345 342 340 338 335 331 329 323 319 319 318 310 302 298 295 288 272 270 258 225 227 225 204 198 184 176 170 170 176 174 176 179
289 298 299 307 288 305 309 313 323 123 126 129 160 310 300 305 318 339 314 320 325 327 325 318 321 323 324 325 335 342 344 338 336 337 333 330 328 326 324 319 318 317 312 308 307 306 286 282 289 270 231 234 222 202 188 170 166 166 170 172 175 179 180
286 272 261 283 314 334 323 289 321 343 134 122 258 272 297 308 289 287 293 305 315 315 316 314 308 325 318 328 344 342 337 332 330 330 329 327 324 321 321 318 322 320 315 314 317 325 322 326 327 281 225 230 212 196 168 166 165 167 171 172 179 182 182
314 295 86 7 331 325 306 304 307 307 84 9 15 291 296 302 297 282 273 279 293 301 305 306 305 305 304 331 343 339 329 329 331 330 329 326 323 320 315 313 318 323 318 320 328 332 331 331 334 335 275 211 166 154 156 160 167 170 175 176 178 183 183
286 287 317 353 338 315 292 345 32 329 355 343 331 321 300 291 291 291 275 255 274 288 298 304 315 313 319 356 345 337 335 329 332 330 327 325 323 321 321 315 320 327 322 324 332 339 338 345 343 348 347 296 161 158 169 173 176 177 180 179 180 184 187
289 279 327 352 337 312 81 353 353 332 336 333 323 316 309 291 284 286 286 251 264 283 291 303 307 312 320 340 346 338 335 329 328 327 322 322 319 321 322 313 336 337 327 322 335 350 346 349 357 353 359 5 334 200 177 189 188 192 191 182 181 185 188
300 339 348 341 334 318 319 322 329 331 325 316 314 307 297 300 289 284 280 277 256 266 279 286 295 303 312 314 355 337 341 328 326 324 322 324 324 326 317 315 338 337 337 331 345 359 352 351 355 358 6 7 7 356 330 279 230 208 193 184 184 188 191
295 316 319 317 304 294 289 304 313 316 316 308 299 303 299 295 293 285 282 277 265 256 267 274 287 300 307 313 328 340 338 326 322 319 318 324 327 330 324 331 345 345 341 341 345 0 1 359 0 10 12 8 1 359 353 350 337 267 198 191 189 192 195
292 301 307 309 302 295 298 300 302 305 305 305 300 295 295 289 284 281 276 275 265 257 268 272 281 292 299 315 318 325 332 328 322 322 316 323 331 334 328 335 345 343 343 347 347 1 357 353 357 356 4 5 1 351 348 351 352 325 249 209 190 195 200
311 309 307 304 295 295 292 299 304 301 306 313 306 298 296 295 284 278 275 272 262 248 253 268 275 284 297 309 320 318 327 334 317 313 317 329 343 342 340 338 343 347 345 352 350 354 359 356 2 5 8 3 1 355 352 12 7 2 317 296 280 226 217